www.pogodaiklimat.ru

Погода и климат >> Архив погоды >> Тунис >> Nabeul


ПОГОДА в Nabeul

  • Прогноз погоды в Nabeul
  • Монитор погоды в Nabeul
  • Климат города

АРХИВ ПОГОДЫ в Nabeul

Время (UTC), дата Ветер
(напр.,м/с)
 
Видим.   Явления Облачность Т
(С)
Тd
(С)
f
(%)
Тe
(С)
Тes
(С)
Комфортность P
(гПа)
Po
(гПа)
Тmin
(С)
Tmax
(С)
R
(мм)
R24
(мм)
S
(см)
06 15.10 ЮЗ 1-1
{4}
н/о н/о +17.9 +16.2 90 +19 +19 1012.9 1003.7 +17.0 +19.4
18 15.10 В 3-4
{6}
н/о н/о +22.3 +21.1 93 +29 +29 очень
душно
1013.1 1004.1 +24.8
00 16.10 СЗ 4-7
{7}
н/о н/о +20.8 +20.3 97 +26 +26 душно 1013.5 1004.4
03 16.10 СЗ 5-8
{8}
н/о н/о +20.1 +19.9 99 +24 +24 комфорт 1012.8 1003.7
06 16.10 СЗ 3-6
{8}
н/о н/о +19.3 +19.0 98 +22 +22 комфорт 1013.6 1004.5 +19.3 +22.4
09 16.10 ЮВ 1-2
{6}
н/о н/о +25.9 +20.9 74 +32 +32 очень
душно
1014.2 1005.3
12 16.10 Ю 2-3
{6}
н/о н/о +26.1 +21.3 75 +33 +33 очень
душно
1014.3 1005.4
15 16.10 СЗ 3-6
{6}
н/о н/о +24.6 +17.6 65 +29 +29 душно 1014.2 1005.2
03 17.10 ЮВ 6-9
{9}
н/о н/о +22.8 +21.1 90 +30 +30 очень
душно
1012.9 1003.9
06 17.10 ЮВ 4-6
{11}
н/о н/о +22.1 +20.4 90 +28 +28 душно 1012.4 1003.4 +19.9 +22.9 0.2
09 17.10 ЮВ 7-9
{11}
н/о н/о +24.8 +21.1 80 +31 +31 очень
душно
1012.1 1003.2
12 17.10 В 7-10
{11}
н/о н/о +23.9 +21.2 85 +30 +30 очень
душно
1009.5 1000.6
18 17.10 В 8-12
{14}
н/о н/о +21.7 +21.5 99 +28 +28 душно 1007.8 998.8 +25.1 7
21 17.10 В 11-20
{20}
н/о н/о +23.1 +21.5 91 +31 +31 очень
душно
1006.2 997.3 0.6
00 18.10 С 8-12
{24}
н/о н/о +15.8 +15.8 100 +14 +14 1005.9 996.7 41
12 18.10 Ю 5-7
{13}
н/о н/о +24.3 +19.4 74 +29 +29 душно 1004.1 995.2
18 18.10 В 3-4
{6}
н/о н/о +19.8 +17.6 87 +23 +23 комфорт 1007.1 998.1 +24.7
00 19.10 СВ 3-3
{7}
н/о н/о +19.9 +18.9 94 +23 +23 комфорт 1009.0 1000.0
09 19.10 СЗ 3-5
{7}
н/о н/о +21.7 +19.3 86 +27 +27 душно 1013.0 1004.0
12 19.10 СЗ 3-7
{7}
н/о н/о +23.5 +18.4 73 +28 +28 душно 1012.8 1003.8
15 19.10 СЗ 4-7
{8}
н/о н/о +24.0 +18.2 70 +28 +28 душно 1013.5 1004.5
18 19.10 СЗ 2-2
{8}
н/о н/о +20.6 +18.7 89 +25 +25 комфорт 1015.2 1006.1 +25.6
21 19.10 С 3-4
{6}
н/о н/о +19.9 +19.2 96 +23 +23 комфорт 1016.2 1007.1 0.2
00 20.10 С 4-5
{6}
н/о н/о +19.9 +17.9 88 +23 +23 комфорт 1017.2 1008.1
03 20.10 С 4-5
{5}
н/о н/о +18.4 +17.8 96 +19 +19 1017.3 1008.1
06 20.10 С 5-6
{7}
н/о н/о +19.5 +18.5 94 +22 +22 комфорт 1018.4 1009.3 +18.3 +20.9
12 20.10 В 4-6
{6}
н/о н/о +25.9 +18.6 64 +31 +31 очень
душно
1019.3 1010.3
18 20.10 С 2-2
{7}
н/о н/о +21.5 +19.4 88 +26 +26 душно 1020.2 1011.1 +26.0
21 20.10 С 3-3
{4}
н/о н/о +20.5 +19.3 93 +25 +25 комфорт 1020.5 1011.4
00 21.10 С 3-4
{5}
н/о н/о +19.1 +18.3 95 +21 +21 комфорт 1019.7 1010.5
03 21.10 С 3-3
{4}
н/о н/о +18.8 +18.3 97 +20 +20 1019.0 1009.8 0.2
06 21.10 СЗ 3-4
{5}
н/о н/о +18.5 +18.0 97 +19 +19 1018.9 1009.7 +18.3 +21.4
09 21.10 СЗ 1-2
{4}
н/о н/о +24.0 +18.4 71 +28 +28 душно 1019.1 1010.1
12 21.10 СЗ 1-2
{4}
н/о н/о +24.0 +18.4 71 +28 +28 душно 1019.1 1010.1
03 22.10 СЗ 5-9
{9}
н/о н/о +18.3 +17.3 94 +18 +18 1013.1 1004.0 0.2

 

Местоположение метеостанции Nabeul (Тунис): широта 36.47 долгота 10.70 высота над уровнем моря 78 м.

В архиве по умолчанию представлена погода в Nabeul за последнюю неделю. Архивные данные за месяц целиком и за предыдущие месяцы, начиная с января 2011 года, Вы можете получить, выбрав интересующий диапазон дат из раскрывающегося списка и нажав кнопку "Ввод!".


*Определитесь, кто Вы:
робот инопланетянин человек

Внимание! Время в таблицах - всемирное. Для получения местного времени необходимо прибавить поправку, которая в Nabeul равна 1 ч.

Смотрите также архив погоды в соседних городах и на ближайших метеорологических станциях:

Погода в Enfidha Hammamet Airport (Тунис) (51 км)
Погода в Kelibia (Тунис) (54 км)
Погода в Zaghouan Magrane (Тунис) (56 км)
Погода в Tunis (Тунис) (58 км)
Погода в Monastir (Тунис) (89 км)
Погода в Kairouan (Тунис) (104 км)
Погода в Mahdia (Тунис) (113 км)
Погода в Bizerte (Тунис) (118 км)
Погода в Pantelleria (Италия) (120 км)
Погода в Siliana (Тунис) (127 км)

Пояснения к столбцам:

Ветер - указаны скорость ветра в м/с - средняя за 10 мин, порывы в срок и между сроками (в фигурных скобках) и направление, откуда дует ветер: С - северный, СВ - северо-восточный, В - восточный, ЮВ - юго-восточный, Ю - южный, ЮЗ - юго-западный, З - западный, СЗ - северо-западный.
Видимость - горизонтальная дальность видимости в метрах или километрах. При видимости от 1 до 10 км при отсутствии осадков обычно наблюдается дымка, при ухудшении видимости до 1 км и менее - туман. В сухую погоду видимость может ухудшаться дымом, пылью или мглою.
Явления - указаны атмосферные явления, наблюдавшиеся в срок или в последний час перед сроком; фигурными скобками обозначены явления, наблюдавшиеся между сроками (за 1-3 часа до срока); квадратными скобками обозначены град или гололедные отложения с указанием их диаметра в мм.
Облачность - указаны через наклонную черту общая и нижняя облачность в баллах и высота нижней границы облаков в метрах; квадратными скобками обозначены формы облаков: Ci - перистые, Cs - перисто-слоистые, Cc - перисто-кучевые, Ac - высококучевые, As - высокослоистые, Sc - слоисто-кучевые, Ns - слоисто-дождевые, Cu - кучевые, Cb - кучево-дождевые. Подробнее классификацию облаков см. в Атласе облаков (PDF).
T - Температура воздуха - температура, измеренная на высоте 2 м над землей.
Td - Температура точки росы - температура, при понижении до которой содержащийся в воздухе водяной пар достигнет насыщения.
f - Относительная влажность воздуха - влажноcть воздуха, измеренная на высоте 2 м над землей.
Te - Эффективная температура - температура, которую ощущает одетый по сезону человек в тени. Характеристика душности погоды. При расчете учитывается влияние влажности воздуха и скорости ветра на теплоощущения человека.
Tes - Эффективная температура на солнце - температура, которую ощущает человек, с поправкой на солнечный нагрев. Характеристика знойности погоды. Зависит от высоты солнца над горизонтом, облачности и скорости ветра. Ночью, в пасмурную погоду, а также при ветре 12 м/с и более поправка равна нулю.
P - Атмосферное давление - приведенное к уровню моря атмосферное давление.
Po - Атмосферное давление - измеренное на уровне метеостанции атмосферное давление.
Tmin - Минимальная температура - минимум температуры воздуха на высоте 2 м над землей.
Tmax - Максимальная температура - максимум температуры воздуха на высоте 2 м над землей.
R - Количество осадков - Количество выпавших осадков за период времени, мм. При наведении курсора мыши на число - период времени, за который выпало указанное количество осадков.
R24 - Количество осадков - Количество выпавших осадков за 24 часа, мм.
S - Снежный покров - Высота снежного покрова, см. При наведении курсора мыши на число - состояние снежного покрова и степень покрытия местности в баллах.